STARLINK-33889, 63829

Orbit data source: Space-Track

STARLINK-33889, 63829 is a payload satellite owned by SpaceX/Seattle (US) in LEO that was launched on Sun, 04 May 2025 UTC via an FALCON 9 launch vehicle from the Air Force Eastern Test Range (AFETR). Payload-class satellites include a variety of spacecraft equipped with specific instruments for various scientific and technological missions. These include communications satellites like Starlink; space stations such as the ISS; scientific satellites like the Hubble; Earth observation satellites from companies like Planet Labs, Umbra, and HawkEye 360; GPS; miniature CubeSats for education and research; and military/defense satellites.

Loading next visibility...
Identifier
63829, 2025-092AB
Orbit
LEO
Country
Flag of USUS
Related business
Manufacturer
SpaceX/Seattle
Mission
Operational spacecraft
Bus & Motor
STARLINK V2MO, Unknown motor
Mass
575 kg wet, ~530 kg dry
Launch date (UTC)
2025-05-04 (6 months ago)
Launch vehicle
FALCON 9
Launch site
Air Force Eastern Test Range (AFETR)
Object type
Payload
Rocket body
Debris
Shape & HBR
Unknown shape, 17.7 m
Radar Cross Section
Large (>1 m²)

Expand to show TLE details & history
Last TLE update: 23 hours ago

TLE from 23 hours ago
0 STARLINK-33889
1 63829U 25092AB  25310.54615931  .00040912  00000-0  14860-2 0  9998
2 63829  42.9999 147.8078 0001187 296.7223  63.3507 15.27625237 29729
Epoch: 2025-11-06T13:06Z
TLE epoch observation values (Epoch: 2025-11-06T13:06:28.164Z)
Latitude
-0.00002°
Longitude
-94.8125°
Altitude
482.324 km
Speed
7.626 km/s
True Right ascension
09h 51m 13s
True Declination
0° 00' 00"
Sunlit
Object was in daylight at epoch
Visualization orbit readout
Latitude
Unknown
Longitude
Unknown
Altitude
Unknown
Speed
Unknown
Apparent Right ascension
Unknown
Apparent Declination
Unknown
Sunlit
N/A
Visualization observer readout
Local Sidereal Time
08:22:20
Azimuth
Unknown
Elevation
Unknown
Doppler factor
Unknown
Orbital elements
Apogee altitude
485.674 km
Perigee altitude
484.044 km
Semi-major axis
6,862.996 km
Eccentricity
0.00012
Inclination
42.9999°
RAAN
147.8078°
Arg. of periapsis
296.7223°
True anomaly
63.36286°
Mean anomaly
63.3507°
Eccentric anomaly
63.35678°
Mean motion
3.81744 °/min
Orbital period
94.3 mins
BSTAR
0.001486
Loading maneuver chart data...
Computing Atmospheric mass density...
Loading historical data...
Loading historical data...
Loading historical data...
Loading historical data...
Loading historical data...
Loading historical data...
Loading historical data...

Documentation

Showing up to 5 results
|